Regional Weather Roundup
Issued by NWS Columbia, SC

Home | Current Version | Previous Version | Text Only | Print | Product List | Glossary On
Versions: 1 2 3 4 5 6 7 8 9 10 11 12 13 14 15 16 17 18 19 20 21 22 23 24 25 26 27 28 29 30 31 32 33 34 35 36 37 38 39 40 41 42 43 44 45 46 47 48 49 50
000
ASUS42 KCAE 201710
RWRCAE
REGIONAL WEATHER ROUNDUP
NATIONAL WEATHER SERVICE COLUMBIA SC
100 PM EDT WED AUG 20 2014

NOTE: "FAIR" INDICATES FEW OR NO CLOUDS BELOW 12,000 FEET WITH NO
SIGNIFICANT WEATHER AND/OR OBSTRUCTIONS TO VISIBILITY.

NOT ALL STATIONS ARE QUALITY CONTROLLED BY THE NATIONAL
WEATHER SERVICE. USE DATA WITH CAUTION...ESPECIALLY
DEWPOINT OBSERVATIONS.

SCZ001>056-GAZ040-063>065-077-201800-
...UPSTATE SOUTH CAROLINA...

CITY           SKY/WX    TMP DP  RH WIND       PRES   REMARKS
ANDERSON       SUNNY     88  68  51 W5        30.05R
LIBERTY        FAIR      89  87  94 CALM      30.05F HX 121
SPARTANBURG    FAIR      88  70  55 CALM      30.04S
CLEMSON        SUNNY     90  68  48 CALM      30.06S
GREENVILLE     SUNNY     88  68  51 SW10      30.06S
GREENWOOD      MOSUNNY   92  66  42 CALM      30.04S
GREER          SUNNY     87  68  52 NW5       30.04S
ROCK HILL      MOSUNNY   87  70  56 CALM      30.03F
CHESTER        FAIR      90  68  48 N3        30.03F
LAURENS        FAIR      88  55  33 CALM      30.05S


...CENTRAL SOUTH CAROLINA...

CITY           SKY/WX    TMP DP  RH WIND       PRES   REMARKS
COLUMBIA APT   MOSUNNY   92  70  48 VRB3      30.00F HX  97
COLUMBIA OWENS MOSUNNY   91  71  51 NE6       30.01F HX  97
DARLINGTON     MOSUNNY   90  73  58 S5        30.00F HX  98
FLORENCE       PTSUNNY   89  72  56 W6        29.99F HX  96
MCENTIRE ANGB  MOSUNNY   90  73  57 VRB1      30.01F HX  98
ORANGEBURG     SUNNY     89  71  55 N8        30.01F HX  95
SUMTER SHAW    MOSUNNY   90  74  59 W5        29.99F HX  99
NEWBERRY       FAIR      90  64  43 CALM      30.05F
AIKEN          FAIR      90  72  55 W5        30.05F HX  96
BARNWELL       CLOUDY    90  72  55 NW3       30.02S HX  96
MANNING        FAIR      90  75  62 CALM      30.00S HX 100
CAMDEN         FAIR      88  70  55 CALM      30.02S
LANCASTER      FAIR      90  73  58 E6        30.02S HX  98
WINNSBORO      FAIR      86  72  62 CALM      30.02S


...EASTERN AND COASTAL SOUTH CAROLINA...

CITY           SKY/WX    TMP DP  RH WIND       PRES   REMARKS
MYRTLE BEACH   MOSUNNY   88  73  62 S9        29.99F HX  96
N MYRTLE BCH   MOSUNNY   85  75  72 S8        29.99S
CONWAY         FAIR      88  73  62 CALM      29.99S HX  96
MARION         PTSUNNY   90  72  55 NW5       29.99F HX  96
HARTSVILLE     PTSUNNY   90  54  29 CALM      30.02S
FLORENCE       PTSUNNY   89  72  56 W6        29.99F HX  96
DARLINGTON     MOSUNNY   90  73  58 S5        30.00F HX  98
CHARLESTON APT MOSUNNY   92  72  51 VRB6      29.99F HX  99
MOUNT PLEASANT FAIR      91  73  55 SW8       29.99F HX 100
WALTERBORO     SUNNY     91  66  43 W12       30.01S
BEAUFORT       MOSUNNY  N/A N/A N/A NW12      30.00F


...EASTERN GEORGIA...

CITY           SKY/WX    TMP DP  RH WIND       PRES   REMARKS
AUGUSTA BUSH F MOSUNNY   91  69  48 VRB7      30.01S HX  96
AUGUSTA DANIEL SUNNY     92  68  45 VRB5      30.03F HX  96
THOMSON        MOSUNNY   93  78  60 W6        30.07F HX 108
WASHINGTON     FAIR      93  73  52 NW3       30.04S HX 102
CLAXTON        FAIR      91  77  62 W7        30.03F HX 105
SYLVANIA       MOSUNNY   90  77  64 NW8       30.03F HX 102
STATESBORO     MOSUNNY   89  75  63 W8        30.02F HX 100
SAVANNAH       PTSUNNY   91  74  57 W9        30.02F HX 100


...SOUTHERN NORTH CAROLINA...

CITY           SKY/WX    TMP DP  RH WIND       PRES   REMARKS
CHARLOTTE      MOSUNNY   88  68  51 W5        30.03S
MONROE         MOSUNNY   90  70  51 CALM      30.02S HX  95
WADESBORO      SUNNY     88  70  56 CALM      30.00F HAZE
ROCKINGHAM       N/A     87  71  59 W6        30.00F
RUTHERFORDTON  SUNNY     85  68  56 S6        30.06S
ASHEVILLE      SUNNY     83  67  58 SE7       30.11F

$$


USA.gov is the U.S. government's official web portal to all federal, state and local government web resources and services.